Location: Ash Swamp
(41.5170°N, 74.6157°W)
Time: 02:04:09
(UTC+00:00)

Cosmos 1733 Rocket - Pass Details

Date: 14 July 2020
Orbit: 604 x 627 km, 82.5° (Epoch: 14 August)

Event Time Altitude Azimuth Distance (km) Brightness Sun altitude
Exits shadow 07:57:57 26° 238° (WSW) 1,213 4.0 -15.2°
Maximum altitude 07:59:41 36° 283° (WNW) 962 3.8 -15.0°
Drops below altitude 10° 08:03:42 10° 351° (N) 1,960 6.2 -14.5°
Sets 08:06:04 0° 360° (N) 2,870 7.2 -14.2°
